Location: Centerville
(32.8776°N, 96.6203°W)
Time: 00:35:54
(UTC+00:00)

IGS 5A - Pass Details

Date: 17 June 2021
Orbit: 583 x 587 km, 97.6° (Epoch: 17 July)

Event Time Altitude Azimuth Distance (km) Brightness Sun altitude
Exits shadow 03:37:52 27° 207° (SSW) 1,123 4.7 -20.7°
Maximum altitude 03:39:38 44° 261° (W) 819 4.3 -21.0°
Drops below altitude 10° 03:43:36 10° 334° (NNW) 1,915 7.2 -21.5°
Sets 03:45:51 0° 341° (NNW) 2,820 8.2 -21.8°
